Location: Drocourt
(49.0571°N, 1.7669°E)
Time: 14:35:44
(UTC+00:00)

Vanguard 3 - Pass Details

Date: 18 April 2024
Orbit: 509 x 3233 km, 33.3° (Epoch: 22 May)

Event Time Altitude Azimuth Distance (km) Brightness Sun altitude
Rises 03:34:17 0° 214° (SW) 6,360 - -12.7°
Exits shadow 03:38:04 - 207° (SSW) 5,442 10.8 -12.2°
Reaches altitude 10° 03:40:42 10° 200° (SSW) 4,816 10.6 -11.9°
Maximum altitude 03:48:18 18° 164° (SSE) 3,425 10.2 -10.8°
Drops below altitude 10° 03:53:55 10° 124° (SE) 3,413 10.7 -10.0°
Sets 03:57:22 0° 106° (ESE) 3,974 11.4 -9.5°
